contact:dominique.lefevre@mio.osupytheas.fr, maurice.libes@osupytheas.fr, didier.mallarino@osupytheas.fr
Project:EMSO http://www.emso-fr.org/EMSO-France
Depth: 2436.0 m
Title:EMSO Ligure Ouest : Data MII capteur AQUADOPP
Date,Latitude,Longitude,X_East,Y_North,Z_Up,Amplitude_X,Amplitude_Y,Amplitude_Z,Batterie,SoundSpeed,Heading,Pitch,Roll,Pressure,TIS,Speed,Direction
, degrees North, degrees East, m.s-1, m.s-1,m.s-1, 1, 1, 1, Volt, m.s-1, degree, degree, degree, dbar, degree_C, m.s-1, degree
2020-01-27T00:04:03,42.805,6.029,-0.012,0.021,-0.009,109.0,115.0,105.0,13.3,1505.3,328.6,-0.7,1.8,2470.165,13.32,0.024,330.3
2020-01-27T00:07:03,42.805,6.029,-0.009,0.02,0.009,108.0,114.0,105.0,13.4,1505.3,326.4,-0.7,1.9,2470.171,13.33,0.021,335.8
2020-01-27T00:10:03,42.805,6.029,-0.016,0.01,-0.019,110.0,114.0,105.0,13.3,1505.3,328.4,-0.7,1.8,2470.173,13.33,0.018,302.0
2020-01-27T00:13:03,42.805,6.029,-0.009,0.013,-0.004,109.0,116.0,105.0,13.4,1505.3,324.1,-0.7,1.8,2470.164,13.33,0.015,325.3
2020-01-27T00:16:03,42.805,6.029,-0.023,0.01,-0.003,110.0,114.0,105.0,13.3,1505.3,326.7,-0.7,1.9,2470.137,13.33,0.025,293.5
2020-01-27T00:19:03,42.805,6.029,-0.014,0.021,-0.002,109.0,114.0,105.0,13.4,1505.3,326.1,-0.7,1.9,2470.169,13.33,0.025,326.3
2020-01-27T00:22:03,42.805,6.029,-0.022,0.018,-0.028,110.0,114.0,105.0,13.4,1505.3,326.8,-0.7,1.8,2470.13,13.33,0.028,309.3
2020-01-27T00:25:03,42.805,6.029,-0.007,0.015,-0.038,111.0,115.0,105.0,13.4,1505.4,326.4,-0.7,1.8,2470.147,13.34,0.016,335.0
2020-01-27T00:28:03,42.805,6.029,-0.012,0.01,-0.037,110.0,116.0,104.0,13.4,1505.4,329.0,-0.7,1.8,2470.117,13.34,0.015,309.8
2020-01-27T00:31:03,42.805,6.029,-0.007,0.013,-0.015,108.0,112.0,105.0,13.4,1505.4,323.5,-0.7,1.8,2470.117,13.34,0.014,331.7
2020-01-27T00:34:03,42.805,6.029,-0.033,0.022,-0.029,109.0,114.0,105.0,13.3,1505.4,326.6,-0.7,1.8,2470.12,13.34,0.039,303.7
2020-01-27T00:37:03,42.805,6.029,0.0,0.013,0.009,109.0,114.0,105.0,13.4,1505.4,325.4,-0.7,1.8,2470.141,13.34,0.013,0.0
2020-01-27T00:40:03,42.805,6.029,0.0,0.008,0.007,109.0,114.0,106.0,13.4,1505.4,325.3,-0.7,1.8,2470.104,13.34,0.008,0.0
2020-01-27T00:43:03,42.805,6.029,-0.004,0.033,-0.004,110.0,115.0,105.0,13.4,1505.4,326.3,-0.7,1.8,2470.117,13.34,0.033,353.1
2020-01-27T00:46:03,42.805,6.029,-0.03,0.002,-0.043,116.0,114.0,105.0,13.4,1505.4,322.9,-0.7,1.8,2470.134,13.34,0.03,273.8
2020-01-27T00:49:03,42.805,6.029,-0.006,0.024,0.01,110.0,114.0,105.0,13.3,1505.4,325.5,-0.7,1.8,2470.146,13.34,0.024,346.0
2020-01-27T00:52:03,42.805,6.029,-0.024,0.018,-0.01,110.0,114.0,104.0,13.3,1505.4,326.0,-0.7,1.8,2470.074,13.34,0.03,306.9
2020-01-27T00:55:03,42.805,6.029,-0.013,0.0,-0.041,109.0,114.0,105.0,13.4,1505.4,326.7,-0.7,1.9,2470.117,13.34,0.013,270.0
2020-01-27T00:58:03,42.805,6.029,-0.012,0.008,-0.013,109.0,114.0,106.0,13.3,1505.4,325.3,-0.7,1.8,2470.091,13.34,0.014,303.7
2020-01-27T01:04:03,42.805,6.029,-0.013,0.033,-0.022,109.0,115.0,106.0,13.3,1505.3,325.3,-0.7,1.9,2470.136,13.32,0.035,338.5
2020-01-27T01:07:03,42.805,6.029,0.012,0.023,0.015,108.0,115.0,105.0,13.4,1505.3,327.6,-0.7,1.8,2470.122,13.33,0.025,27.6
2020-01-27T01:10:03,42.805,6.029,-0.004,0.025,0.003,107.0,114.0,105.0,13.4,1505.3,325.7,-0.7,1.8,2470.118,13.33,0.025,350.9
2020-01-27T01:13:03,42.805,6.029,-0.032,0.021,-0.018,109.0,115.0,103.0,13.4,1505.3,326.6,-0.7,1.8,2470.093,13.33,0.038,303.3
2020-01-27T01:16:03,42.805,6.029,-0.015,0.0,-0.049,110.0,114.0,104.0,13.3,1505.3,324.2,-0.7,1.8,2470.116,13.33,0.015,270.0
2020-01-27T01:19:03,42.805,6.029,-0.01,0.012,-0.041,109.0,114.0,105.0,13.3,1505.4,325.1,-0.7,1.8,2470.123,13.34,0.015,320.2
2020-01-27T01:22:03,42.805,6.029,-0.008,0.028,-0.002,108.0,114.0,105.0,13.3,1505.4,327.3,-0.7,1.8,2470.097,13.34,0.029,344.1
2020-01-27T01:25:03,42.805,6.029,0.0,0.024,0.0,111.0,115.0,105.0,13.4,1505.4,325.8,-0.7,1.8,2470.055,13.34,0.024,0.0
2020-01-27T01:28:03,42.805,6.029,-0.003,-0.007,0.0,109.0,115.0,105.0,13.3,1505.4,324.5,-0.7,1.8,2470.115,13.34,0.007,203.2
2020-01-27T01:31:03,42.805,6.029,-0.008,0.008,0.012,108.0,114.0,105.0,13.3,1505.4,325.3,-0.8,1.8,2470.124,13.34,0.011,315.0
2020-01-27T01:34:03,42.805,6.029,-0.002,0.0,-0.012,108.0,115.0,106.0,13.4,1505.4,326.9,-0.7,1.8,2470.087,13.34,0.002,270.0
2020-01-27T01:37:03,42.805,6.029,0.005,0.013,-0.027,109.0,114.0,104.0,13.4,1505.3,327.4,-0.7,1.8,2470.128,13.33,0.013,21.0
2020-01-27T01:40:03,42.805,6.029,-0.004,0.017,-0.012,109.0,115.0,106.0,13.3,1505.3,325.6,-0.7,1.9,2470.11,13.33,0.017,346.8
2020-01-27T01:43:03,42.805,6.029,0.017,-0.002,0.032,108.0,116.0,105.0,13.3,1505.4,325.7,-0.7,1.8,2470.099,13.34,0.017,96.7
2020-01-27T01:46:03,42.805,6.029,-0.01,0.035,0.003,108.0,115.0,105.0,13.3,1505.4,323.5,-0.7,1.8,2470.068,13.34,0.036,344.1
2020-01-27T01:49:03,42.805,6.029,0.022,0.02,-0.008,109.0,115.0,105.0,13.4,1505.4,326.5,-0.7,1.8,2470.119,13.34,0.029,47.7
2020-01-27T01:52:03,42.805,6.029,0.008,0.011,-0.021,109.0,115.0,106.0,13.4,1505.4,327.6,-0.7,1.8,2470.08,13.34,0.013,36.0
2020-01-27T01:55:03,42.805,6.029,0.001,0.002,-0.024,109.0,115.0,105.0,13.4,1505.4,325.2,-0.7,1.8,2470.079,13.34,0.002,26.6
2020-01-27T01:58:03,42.805,6.029,-0.009,0.002,0.007,108.0,114.0,105.0,13.4,1505.4,325.3,-0.7,1.8,2470.061,13.34,0.009,282.5
2020-01-27T02:04:03,42.805,6.029,0.013,0.029,-0.031,111.0,115.0,106.0,13.3,1505.3,328.5,-0.7,1.8,2470.12,13.32,0.031,24.1
2020-01-27T02:07:03,42.805,6.029,-0.014,0.0,-0.011,110.0,115.0,105.0,13.3,1505.3,324.9,-0.7,1.8,2470.106,13.33,0.014,270.0
2020-01-27T02:10:03,42.805,6.029,-0.017,0.025,0.011,109.0,115.0,104.0,13.4,1505.3,324.1,-0.7,1.8,2470.061,13.33,0.03,325.8
2020-01-27T02:13:03,42.805,6.029,-0.004,0.017,-0.017,109.0,115.0,105.0,13.4,1505.3,325.0,-0.7,1.9,2470.119,13.33,0.017,346.8
2020-01-27T02:16:03,42.805,6.029,-0.019,0.0,-0.006,111.0,115.0,106.0,13.4,1505.4,328.1,-0.7,1.8,2470.089,13.34,0.019,270.0
2020-01-27T02:19:03,42.805,6.029,0.002,-0.01,-0.014,110.0,116.0,105.0,13.4,1505.4,325.7,-0.7,1.9,2470.071,13.34,0.01,168.7
2020-01-27T02:22:03,42.805,6.029,0.001,0.0,-0.002,110.0,115.0,105.0,13.4,1505.4,324.1,-0.7,1.8,2470.092,13.34,0.001,90.0
2020-01-27T02:25:03,42.805,6.029,-0.031,-0.007,0.015,110.0,114.0,106.0,13.4,1505.4,326.0,-0.7,1.9,2470.077,13.34,0.031,257.3
2020-01-27T02:28:03,42.805,6.029,-0.009,0.011,0.01,112.0,116.0,106.0,13.4,1505.4,323.4,-0.7,1.8,2470.099,13.34,0.014,320.7
2020-01-27T02:31:03,42.805,6.029,-0.016,0.01,0.01,111.0,115.0,105.0,13.4,1505.4,327.0,-0.7,1.8,2470.118,13.34,0.018,302.0
2020-01-27T02:34:03,42.805,6.029,0.009,0.016,-0.024,111.0,114.0,106.0,13.4,1505.4,324.3,-0.7,1.8,2470.072,13.34,0.018,29.4
2020-01-27T02:37:03,42.805,6.029,-0.013,0.037,-0.025,113.0,115.0,105.0,13.4,1505.4,326.3,-0.7,1.8,2470.094,13.34,0.039,340.6
2020-01-27T02:40:03,42.805,6.029,-0.045,0.011,-0.032,109.0,115.0,106.0,13.4,1505.4,323.8,-0.7,1.8,2470.077,13.34,0.046,283.7
2020-01-27T02:43:03,42.805,6.029,-0.007,0.0,-0.017,111.0,115.0,106.0,13.3,1505.4,328.0,-0.7,1.9,2470.078,13.34,0.007,270.0
2020-01-27T02:46:03,42.805,6.029,-0.032,0.009,0.007,110.0,116.0,105.0,13.4,1505.4,325.1,-0.7,1.8,2470.122,13.34,0.033,285.7
2020-01-27T02:49:03,42.805,6.029,0.014,0.006,-0.028,111.0,116.0,104.0,13.3,1505.4,323.2,-0.7,1.9,2470.094,13.34,0.015,66.8
2020-01-27T02:52:03,42.805,6.029,-0.013,0.021,-0.002,110.0,115.0,105.0,13.4,1505.4,327.9,-0.7,1.8,2470.07,13.34,0.024,328.2
2020-01-27T02:55:03,42.805,6.029,-0.016,0.009,-0.002,111.0,115.0,106.0,13.4,1505.4,324.8,-0.7,1.8,2470.035,13.34,0.018,299.4
2020-01-27T02:58:03,42.805,6.029,-0.009,0.002,-0.014,112.0,115.0,105.0,13.4,1505.4,323.3,-0.7,1.8,2470.078,13.35,0.009,282.5
2020-01-27T03:04:03,42.805,6.029,-0.001,0.022,0.008,110.0,116.0,106.0,13.4,1505.3,325.2,-0.7,1.8,2470.111,13.33,0.022,357.4
2020-01-27T03:07:03,42.805,6.029,-0.01,0.004,-0.01,111.0,115.0,106.0,13.4,1505.3,325.0,-0.7,1.8,2470.083,13.33,0.01,291.8
2020-01-27T03:10:03,42.805,6.029,-0.014,0.002,-0.013,110.0,115.0,106.0,13.4,1505.3,327.7,-0.7,1.8,2470.089,13.33,0.014,278.1
2020-01-27T03:13:03,42.805,6.029,0.0,0.0,-0.002,110.0,116.0,105.0,13.4,1505.4,326.1,-0.7,1.8,2470.088,13.34,0.0,0.0
2020-01-27T03:16:03,42.805,6.029,0.018,0.018,0.017,111.0,115.0,106.0,13.3,1505.4,325.1,-0.7,1.8,2470.097,13.34,0.025,45.0
2020-01-27T03:19:03,42.805,6.029,0.01,0.013,0.0,111.0,116.0,105.0,13.4,1505.4,326.8,-0.7,1.8,2470.089,13.34,0.016,37.6
2020-01-27T03:22:03,42.805,6.029,-0.008,0.0,0.0,110.0,116.0,104.0,13.3,1505.4,324.9,-0.7,1.9,2470.067,13.34,0.008,270.0
2020-01-27T03:25:03,42.805,6.029,0.002,0.007,0.023,110.0,116.0,104.0,13.4,1505.4,325.5,-0.8,1.8,2470.096,13.34,0.007,15.9
2020-01-27T03:28:03,42.805,6.029,0.008,0.01,-0.013,110.0,115.0,106.0,13.4,1505.4,324.0,-0.7,1.8,2470.131,13.34,0.012,38.7
2020-01-27T03:31:03,42.805,6.029,0.012,0.018,0.017,112.0,116.0,105.0,13.3,1505.4,328.0,-0.7,1.8,2470.08,13.34,0.021,33.7
2020-01-27T03:34:03,42.805,6.029,0.006,0.022,-0.01,110.0,115.0,106.0,13.4,1505.4,327.2,-0.7,1.9,2470.102,13.34,0.022,15.3
2020-01-27T03:37:03,42.805,6.029,0.028,0.003,0.021,110.0,116.0,106.0,13.3,1505.4,327.8,-0.7,1.8,2470.109,13.35,0.028,83.9
2020-01-27T03:40:03,42.805,6.029,0.016,0.003,0.002,110.0,115.0,108.0,13.3,1505.4,325.0,-0.7,1.9,2470.093,13.35,0.016,79.4
2020-01-27T03:43:03,42.805,6.029,-0.006,0.027,0.007,111.0,116.0,106.0,13.3,1505.4,324.0,-0.7,1.8,2470.081,13.35,0.027,347.5
2020-01-27T03:46:03,42.805,6.029,0.003,0.005,0.013,111.0,115.0,106.0,13.4,1505.4,327.0,-0.7,1.8,2470.101,13.35,0.005,31.0
2020-01-27T03:49:03,42.805,6.029,0.017,0.006,-0.01,111.0,115.0,106.0,13.4,1505.4,328.3,-0.7,1.8,2470.122,13.35,0.018,70.6
2020-01-27T03:52:03,42.805,6.029,-0.018,-0.003,0.009,110.0,116.0,107.0,13.3,1505.4,325.8,-0.7,1.8,2470.091,13.35,0.018,260.5
2020-01-27T03:55:03,42.805,6.029,-0.011,0.017,-0.028,111.0,115.0,106.0,13.4,1505.4,325.2,-0.7,1.9,2470.119,13.35,0.02,327.1
2020-01-27T03:58:03,42.805,6.029,0.003,-0.003,-0.005,109.0,116.0,107.0,13.4,1505.4,328.5,-0.7,1.8,2470.085,13.35,0.004,135.0
2020-01-27T04:04:03,42.805,6.029,-0.003,0.031,-0.013,110.0,115.0,106.0,13.3,1505.3,322.9,-0.7,1.9,2470.147,13.33,0.031,354.5
2020-01-27T04:07:03,42.805,6.029,-0.009,0.006,-0.015,110.0,115.0,108.0,13.4,1505.3,326.3,-0.7,1.8,2470.12,13.33,0.01,303.7
2020-01-27T04:10:03,42.805,6.029,-0.002,0.008,-0.02,110.0,114.0,105.0,13.4,1505.4,324.5,-0.7,1.9,2470.123,13.34,0.008,346.0
2020-01-27T04:13:03,42.805,6.029,0.009,0.01,0.014,109.0,116.0,106.0,13.4,1505.4,328.6,-0.7,1.8,2470.138,13.34,0.013,42.0
2020-01-27T04:16:03,42.805,6.029,0.015,0.011,-0.01,111.0,116.0,105.0,13.4,1505.4,327.1,-0.7,1.8,2470.139,13.34,0.018,53.7
2020-01-27T04:19:03,42.805,6.029,-0.001,0.017,0.014,112.0,116.0,106.0,13.4,1505.4,326.4,-0.7,1.8,2470.098,13.34,0.017,356.6
2020-01-27T04:22:03,42.805,6.029,-0.009,0.01,0.01,111.0,114.0,106.0,13.4,1505.4,325.6,-0.7,1.8,2470.116,13.35,0.013,318.0
2020-01-27T04:25:03,42.805,6.029,-0.019,0.012,-0.031,110.0,115.0,105.0,13.3,1505.4,326.8,-0.7,1.8,2470.169,13.35,0.022,302.3
2020-01-27T04:28:03,42.805,6.029,0.016,0.0,-0.015,109.0,116.0,106.0,13.3,1505.4,328.0,-0.7,1.8,2470.156,13.35,0.016,90.0
2020-01-27T04:31:03,42.805,6.029,0.009,0.01,-0.01,111.0,115.0,107.0,13.4,1505.4,326.0,-0.7,1.9,2470.114,13.35,0.013,42.0
2020-01-27T04:34:03,42.805,6.029,-0.024,0.008,-0.024,111.0,115.0,106.0,13.3,1505.4,326.3,-0.7,1.8,2470.106,13.35,0.025,288.4
2020-01-27T04:37:03,42.805,6.029,-0.017,0.003,-0.024,111.0,114.0,106.0,13.4,1505.4,323.7,-0.7,1.8,2470.128,13.35,0.017,280.0
2020-01-27T04:40:03,42.805,6.029,0.004,0.021,0.008,110.0,116.0,105.0,13.4,1505.4,325.5,-0.7,1.8,2470.102,13.35,0.021,10.8
2020-01-27T04:43:03,42.805,6.029,0.004,-0.005,-0.02,109.0,114.0,104.0,13.4,1505.4,327.9,-0.7,1.8,2470.14,13.35,0.006,141.3
2020-01-27T04:46:03,42.805,6.029,-0.001,0.007,-0.014,110.0,114.0,106.0,13.4,1505.4,327.0,-0.7,1.8,2470.114,13.35,0.007,351.9
2020-01-27T04:49:03,42.805,6.029,0.009,0.023,-0.012,111.0,115.0,105.0,13.4,1505.4,324.9,-0.7,1.9,2470.171,13.35,0.024,21.4
2020-01-27T04:52:03,42.805,6.029,-0.001,0.0,0.029,110.0,115.0,105.0,13.4,1505.4,324.9,-0.7,1.8,2470.101,13.35,0.001,270.0
2020-01-27T04:55:03,42.805,6.029,0.025,0.017,0.004,110.0,114.0,105.0,13.3,1505.4,324.0,-0.7,1.8,2470.142,13.35,0.03,55.8
2020-01-27T04:58:03,42.805,6.029,-0.014,0.019,0.002,110.0,114.0,104.0,13.3,1505.4,327.8,-0.7,1.9,2470.119,13.35,0.023,323.6
2020-01-27T05:04:03,42.805,6.029,0.007,0.005,-0.02,111.0,116.0,105.0,13.4,1505.3,323.2,-0.8,1.8,2470.172,13.33,0.008,54.5
2020-01-27T05:07:03,42.805,6.029,-0.016,0.025,0.02,112.0,114.0,109.0,13.3,1505.4,328.6,-0.7,1.8,2470.169,13.34,0.029,327.4
2020-01-27T05:10:03,42.805,6.029,0.019,-0.012,-0.008,108.0,114.0,106.0,13.4,1505.4,325.8,-0.7,1.8,2470.133,13.34,0.022,122.3
2020-01-27T05:13:03,42.805,6.029,-0.014,-0.003,-0.009,109.0,113.0,105.0,13.3,1505.4,328.1,-0.7,1.9,2470.183,13.34,0.014,257.9
2020-01-27T05:16:03,42.805,6.029,0.01,0.017,-0.013,109.0,115.0,106.0,13.4,1505.4,323.5,-0.7,1.8,2470.186,13.34,0.019,30.5
2020-01-27T05:19:03,42.805,6.029,0.002,-0.006,0.009,108.0,114.0,105.0,13.4,1505.4,328.1,-0.7,1.8,2470.129,13.35,0.006,161.6
2020-01-27T05:22:03,42.805,6.029,-0.001,0.012,-0.015,111.0,115.0,106.0,13.4,1505.4,324.1,-0.7,1.8,2470.172,13.35,0.012,355.2
2020-01-27T05:25:03,42.805,6.029,-0.004,0.006,-0.007,110.0,114.0,105.0,13.4,1505.4,325.3,-0.7,1.8,2470.183,13.35,0.007,326.3
2020-01-27T05:28:03,42.805,6.029,0.017,0.002,0.026,110.0,115.0,105.0,13.3,1505.4,324.1,-0.7,1.9,2470.147,13.35,0.017,83.3
2020-01-27T05:31:03,42.805,6.029,0.024,0.019,-0.004,109.0,114.0,105.0,13.3,1505.4,325.0,-0.8,1.8,2470.157,13.35,0.03,51.6
2020-01-27T05:34:03,42.805,6.029,-0.025,0.014,-0.017,108.0,114.0,105.0,13.4,1505.4,323.6,-0.7,1.9,2470.191,13.35,0.028,299.3
2020-01-27T05:37:03,42.805,6.029,-0.01,0.009,-0.036,109.0,114.0,104.0,13.4,1505.4,324.9,-0.7,1.8,2470.171,13.35,0.013,312.0
2020-01-27T05:40:03,42.805,6.029,0.003,0.005,0.003,109.0,114.0,105.0,13.3,1505.4,327.5,-0.7,1.8,2470.167,13.35,0.005,31.0
2020-01-27T05:43:03,42.805,6.029,0.012,0.017,0.032,107.0,113.0,104.0,13.3,1505.4,327.3,-0.7,1.9,2470.25,13.35,0.02,35.2
2020-01-27T05:46:03,42.805,6.029,-0.006,0.016,-0.003,109.0,114.0,103.0,13.4,1505.4,326.8,-0.7,1.8,2470.194,13.35,0.017,339.4
2020-01-27T05:49:03,42.805,6.029,0.003,0.025,0.003,109.0,112.0,103.0,13.3,1505.4,326.9,-0.7,1.9,2470.218,13.35,0.025,6.8
2020-01-27T05:52:03,42.805,6.029,0.003,0.021,-0.001,108.0,115.0,104.0,13.4,1505.4,327.0,-0.7,1.8,2470.189,13.35,0.021,8.1
2020-01-27T05:58:03,42.805,6.029,-0.001,0.025,-0.016,106.0,112.0,103.0,13.3,1505.3,327.7,-0.7,1.8,2470.274,13.33,0.025,357.7
2020-01-27T06:04:03,42.805,6.029,-0.009,0.005,-0.022,107.0,112.0,104.0,13.4,1505.3,327.2,-0.8,1.8,2470.27,13.32,0.01,299.1
2020-01-27T06:07:03,42.805,6.029,-0.01,0.012,-0.014,109.0,115.0,104.0,13.4,1505.3,325.7,-0.7,1.9,2470.265,13.33,0.015,320.2
2020-01-27T06:10:03,42.805,6.029,-0.008,0.013,-0.015,108.0,113.0,104.0,13.4,1505.3,325.5,-0.7,1.8,2470.282,13.33,0.015,328.4
2020-01-27T06:13:03,42.805,6.029,-0.033,0.0,-0.037,107.0,113.0,105.0,13.4,1505.4,327.2,-0.7,1.8,2470.237,13.34,0.033,270.0
2020-01-27T06:16:03,42.805,6.029,0.0,0.011,0.016,108.0,113.0,105.0,13.4,1505.4,328.1,-0.7,1.9,2470.24,13.34,0.011,0.0
2020-01-27T06:19:03,42.805,6.029,-0.013,0.022,-0.045,109.0,114.0,104.0,13.4,1505.4,323.3,-0.7,1.8,2470.284,13.34,0.025,329.4
2020-01-27T06:22:03,42.805,6.029,0.003,0.014,0.03,109.0,114.0,104.0,13.4,1505.4,326.4,-0.7,1.8,2470.251,13.34,0.014,12.1
2020-01-27T06:25:03,42.805,6.029,0.009,0.006,-0.036,107.0,115.0,104.0,13.3,1505.4,327.6,-0.7,1.8,2470.264,13.34,0.01,56.3
2020-01-27T06:28:03,42.805,6.029,-0.018,0.03,-0.024,108.0,114.0,104.0,13.3,1505.4,324.2,-0.7,1.9,2470.283,13.34,0.034,329.0
2020-01-27T06:31:03,42.805,6.029,-0.009,0.008,-0.026,109.0,115.0,105.0,13.4,1505.4,325.1,-0.7,1.9,2470.264,13.34,0.012,311.6
2020-01-27T06:34:03,42.805,6.029,-0.018,0.014,-0.018,108.0,115.0,105.0,13.4,1505.4,328.3,-0.7,1.8,2470.265,13.34,0.022,307.9
2020-01-27T06:37:03,42.805,6.029,-0.008,0.015,0.024,108.0,114.0,105.0,13.4,1505.4,324.7,-0.7,1.8,2470.251,13.34,0.017,331.9
2020-01-27T06:40:03,42.805,6.029,-0.01,0.008,-0.004,107.0,112.0,105.0,13.4,1505.4,323.5,-0.7,1.8,2470.283,13.34,0.012,308.7
2020-01-27T06:43:03,42.805,6.029,-0.014,-0.001,-0.063,107.0,114.0,105.0,13.4,1505.4,325.6,-0.7,1.8,2470.256,13.34,0.014,265.9
2020-01-27T06:46:03,42.805,6.029,0.006,0.015,-0.002,109.0,114.0,104.0,13.3,1505.4,324.2,-0.7,1.8,2470.225,13.34,0.016,21.8
2020-01-27T06:49:03,42.805,6.029,0.014,0.032,0.017,108.0,114.0,105.0,13.4,1505.4,328.1,-0.7,1.8,2470.264,13.34,0.034,23.6
2020-01-27T06:52:03,42.805,6.029,-0.01,0.019,-0.022,111.0,114.0,105.0,13.4,1505.4,328.6,-0.7,1.8,2470.262,13.34,0.021,332.2
2020-01-27T06:55:03,42.805,6.029,-0.005,0.009,-0.008,108.0,114.0,104.0,13.3,1505.4,328.6,-0.7,1.9,2470.244,13.34,0.01,330.9
2020-01-27T06:58:03,42.805,6.029,-0.001,-0.011,-0.021,109.0,115.0,104.0,13.4,1505.4,324.9,-0.7,1.8,2470.254,13.34,0.011,185.2
2020-01-27T07:04:03,42.805,6.029,-0.003,0.016,0.0,109.0,114.0,104.0,13.3,1505.3,323.8,-0.8,1.8,2470.31,13.32,0.016,349.4
2020-01-27T07:07:03,42.805,6.029,-0.008,0.004,-0.019,108.0,112.0,104.0,13.4,1505.3,324.0,-0.7,1.8,2470.283,13.33,0.008,296.6
2020-01-27T07:10:03,42.805,6.029,0.019,-0.003,-0.023,107.0,115.0,103.0,13.3,1505.3,327.3,-0.7,1.8,2470.285,13.33,0.019,99.0
2020-01-27T07:13:03,42.805,6.029,-0.012,0.006,-0.016,109.0,112.0,105.0,13.4,1505.4,323.5,-0.8,1.8,2470.298,13.34,0.013,296.6
2020-01-27T07:16:03,42.805,6.029,-0.003,0.0,-0.013,108.0,114.0,106.0,13.4,1505.4,323.6,-0.7,1.8,2470.275,13.34,0.003,270.0
2020-01-27T07:19:03,42.805,6.029,-0.005,-0.006,0.02,108.0,114.0,103.0,13.4,1505.4,327.2,-0.7,1.8,2470.294,13.34,0.007,219.8
2020-01-27T07:22:03,42.805,6.029,-0.014,0.013,-0.017,109.0,114.0,104.0,13.3,1505.4,323.8,-0.7,1.9,2470.287,13.34,0.019,312.9
2020-01-27T07:25:03,42.805,6.029,-0.028,0.009,-0.018,109.0,114.0,105.0,13.4,1505.4,328.1,-0.7,1.8,2470.282,13.34,0.029,287.8
2020-01-27T07:28:03,42.805,6.029,-0.034,0.007,0.008,109.0,113.0,103.0,13.4,1505.4,327.1,-0.7,1.8,2470.301,13.34,0.034,281.6
2020-01-27T07:31:03,42.805,6.029,0.004,0.006,-0.023,108.0,114.0,104.0,13.4,1505.4,323.7,-0.7,1.8,2470.3,13.34,0.007,33.7
2020-01-27T07:34:03,42.805,6.029,-0.013,0.003,0.006,108.0,114.0,103.0,13.4,1505.4,327.1,-0.7,1.8,2470.304,13.34,0.013,283.0
2020-01-27T07:37:03,42.805,6.029,-0.013,0.019,-0.025,108.0,115.0,105.0,13.3,1505.4,328.1,-0.7,1.8,2470.308,13.34,0.023,325.6
2020-01-27T07:40:03,42.805,6.029,-0.009,-0.011,-0.028,108.0,114.0,105.0,13.4,1505.4,325.1,-0.7,1.8,2470.326,13.34,0.014,219.3
2020-01-27T07:43:03,42.805,6.029,-0.012,0.008,-0.027,108.0,116.0,106.0,13.4,1505.4,324.0,-0.7,1.8,2470.319,13.34,0.014,303.7
2020-01-27T07:46:03,42.805,6.029,0.008,0.006,-0.001,109.0,114.0,105.0,13.4,1505.4,328.3,-0.7,1.8,2470.304,13.34,0.01,53.1
2020-01-27T07:49:03,42.805,6.029,-0.013,0.002,-0.024,109.0,113.0,106.0,13.3,1505.4,325.1,-0.7,1.8,2470.346,13.34,0.013,278.7
2020-01-27T07:52:03,42.805,6.029,0.001,0.013,-0.03,108.0,114.0,106.0,13.4,1505.4,323.2,-0.7,1.8,2470.319,13.34,0.013,4.4
2020-01-27T07:55:03,42.805,6.029,-0.014,-0.008,-0.037,108.0,113.0,105.0,13.4,1505.4,327.6,-0.7,1.8,2470.351,13.34,0.016,240.3
2020-01-27T07:58:03,42.805,6.029,-0.005,0.014,-0.017,108.0,113.0,104.0,13.4,1505.4,325.9,-0.7,1.8,2470.314,13.34,0.014,340.4
2020-01-27T08:04:03,42.805,6.029,-0.02,-0.014,-0.008,109.0,114.0,104.0,13.3,1505.3,327.4,-0.7,1.8,2470.332,13.32,0.024,235.0
2020-01-27T08:07:03,42.805,6.029,-0.013,0.001,0.015,108.0,115.0,104.0,13.4,1505.3,326.3,-0.7,1.8,2470.36,13.33,0.013,274.4
2020-01-27T08:10:03,42.805,6.029,-0.029,0.007,-0.023,108.0,114.0,104.0,13.4,1505.3,324.9,-0.7,1.8,2470.367,13.33,0.029,283.6
2020-01-27T08:13:03,42.805,6.029,-0.006,0.028,-0.027,108.0,115.0,105.0,13.4,1505.4,324.2,-0.7,1.8,2470.354,13.34,0.028,347.9
2020-01-27T08:16:03,42.805,6.029,-0.029,-0.002,-0.032,107.0,114.0,103.0,13.4,1505.4,323.3,-0.7,1.8,2470.324,13.34,0.029,266.1
2020-01-27T08:19:03,42.805,6.029,-0.027,0.017,-0.009,108.0,114.0,103.0,13.3,1505.4,327.6,-0.7,1.8,2470.341,13.34,0.031,302.2
2020-01-27T08:22:03,42.805,6.029,-0.02,0.0,-0.006,108.0,114.0,103.0,13.4,1505.4,325.8,-0.7,1.8,2470.355,13.34,0.02,270.0
2020-01-27T08:25:03,42.805,6.029,-0.029,0.017,-0.024,107.0,115.0,103.0,13.4,1505.4,324.2,-0.7,1.8,2470.358,13.34,0.033,300.4
2020-01-27T08:28:03,42.805,6.029,-0.019,0.015,0.0,108.0,114.0,105.0,13.4,1505.4,327.9,-0.7,1.9,2470.351,13.34,0.024,308.3
2020-01-27T08:31:03,42.805,6.029,-0.014,-0.011,0.005,109.0,115.0,104.0,13.4,1505.4,324.7,-0.7,1.8,2470.367,13.34,0.017,231.8
2020-01-27T08:34:03,42.805,6.029,-0.025,0.01,-0.006,107.0,115.0,104.0,13.3,1505.4,326.5,-0.7,1.8,2470.348,13.34,0.026,291.8
2020-01-27T08:37:03,42.805,6.029,-0.016,0.005,-0.042,109.0,115.0,104.0,13.3,1505.4,325.2,-0.7,1.8,2470.34,13.34,0.016,287.4
2020-01-27T08:40:03,42.805,6.029,-0.033,0.016,-0.002,107.0,115.0,104.0,13.3,1505.4,323.2,-0.7,1.8,2470.314,13.34,0.036,295.9
2020-01-27T08:43:03,42.805,6.029,-0.009,0.003,-0.02,109.0,114.0,105.0,13.3,1505.4,324.8,-0.8,1.9,2470.327,13.34,0.009,288.4
2020-01-27T08:46:03,42.805,6.029,-0.012,0.0,0.004,111.0,113.0,104.0,13.4,1505.4,323.1,-0.7,1.8,2470.367,13.34,0.012,270.0
2020-01-27T08:49:03,42.805,6.029,-0.022,0.005,0.007,106.0,114.0,104.0,13.3,1505.4,327.9,-0.7,1.8,2470.369,13.34,0.022,282.8
2020-01-27T08:52:03,42.805,6.029,-0.035,0.007,0.001,109.0,114.0,105.0,13.3,1505.4,326.0,-0.7,1.8,2470.332,13.34,0.035,281.3
2020-01-27T08:55:03,42.805,6.029,0.017,0.018,-0.015,108.0,115.0,103.0,13.4,1505.4,327.7,-0.8,1.8,2470.343,13.34,0.024,43.4
2020-01-27T08:58:03,42.805,6.029,-0.011,0.013,-0.016,108.0,115.0,104.0,13.4,1505.4,324.8,-0.7,1.8,2470.318,13.34,0.017,319.8
2020-01-27T09:04:03,42.805,6.029,0.008,0.013,-0.007,110.0,115.0,105.0,13.4,1505.3,324.0,-0.7,1.8,2470.361,13.32,0.015,31.6
2020-01-27T09:07:03,42.805,6.029,-0.029,0.014,0.0,108.0,113.0,105.0,13.4,1505.3,326.4,-0.7,1.8,2470.353,13.33,0.032,295.8
2020-01-27T09:10:03,42.805,6.029,-0.019,0.006,-0.007,109.0,114.0,106.0,13.4,1505.3,323.8,-0.7,1.8,2470.379,13.33,0.019,287.5
2020-01-27T09:13:03,42.805,6.029,-0.066,0.019,-0.033,107.0,113.0,103.0,13.4,1505.3,325.6,-0.7,1.8,2470.361,13.33,0.068,286.1
2020-01-27T09:16:03,42.805,6.029,0.015,0.015,-0.009,108.0,114.0,103.0,13.4,1505.3,326.6,-0.7,1.8,2470.372,13.33,0.021,45.0
2020-01-27T09:19:03,42.805,6.029,-0.025,0.012,-0.003,108.0,114.0,104.0,13.4,1505.3,324.1,-0.7,1.8,2470.38,13.33,0.027,295.6
2020-01-27T09:22:03,42.805,6.029,0.0,0.011,0.018,108.0,113.0,103.0,13.4,1505.4,323.7,-0.7,1.9,2470.339,13.34,0.011,0.0
2020-01-27T09:25:03,42.805,6.029,-0.038,0.019,-0.029,107.0,112.0,104.0,13.4,1505.4,325.5,-0.7,1.8,2470.354,13.34,0.042,296.6
2020-01-27T09:28:03,42.805,6.029,-0.02,0.017,-0.013,109.0,114.0,104.0,13.4,1505.4,325.3,-0.7,1.9,2470.382,13.34,0.026,310.4
2020-01-27T09:34:03,42.805,6.029,-0.029,0.015,0.003,107.0,114.0,104.0,13.4,1505.3,328.0,-0.7,1.8,2470.421,13.32,0.032,297.4
2020-01-27T09:37:03,42.805,6.029,0.003,0.017,-0.031,108.0,115.0,104.0,13.4,1505.3,327.9,-0.7,1.8,2470.417,13.32,0.017,10.0
2020-01-27T09:40:03,42.805,6.029,0.0,0.018,-0.008,107.0,115.0,105.0,13.4,1505.3,327.7,-0.7,1.8,2470.376,13.33,0.018,0.0
2020-01-27T09:43:03,42.805,6.029,-0.044,0.017,-0.06,107.0,116.0,105.0,13.4,1505.3,327.4,-0.7,1.8,2470.381,13.33,0.047,291.1
2020-01-27T09:46:03,42.805,6.029,-0.01,0.014,-0.033,107.0,115.0,106.0,13.4,1505.3,324.8,-0.7,1.8,2470.389,13.33,0.017,324.5
2020-01-27T09:49:03,42.805,6.029,-0.006,0.04,-0.017,107.0,117.0,106.0,13.4,1505.3,325.1,-0.7,1.8,2470.399,13.33,0.04,351.5
2020-01-27T09:52:03,42.805,6.029,-0.02,0.001,-0.005,109.0,116.0,105.0,13.4,1505.3,323.6,-0.7,1.8,2470.343,13.33,0.02,272.9
2020-01-27T09:55:03,42.805,6.029,-0.03,0.015,-0.034,109.0,115.0,104.0,13.3,1505.3,326.7,-0.7,1.8,2470.35,13.33,0.033,296.6
2020-01-27T09:58:03,42.805,6.029,-0.016,0.022,-0.014,109.0,116.0,104.0,13.4,1505.3,324.9,-0.7,1.8,2470.334,13.33,0.027,324.0
2020-01-27T10:04:03,42.805,6.029,-0.02,0.023,-0.003,108.0,115.0,106.0,13.3,1505.3,328.0,-0.8,1.8,2470.342,13.31,0.03,319.0
2020-01-27T10:07:03,42.805,6.029,-0.023,0.03,-0.002,108.0,115.0,104.0,13.3,1505.3,328.5,-0.8,1.9,2470.37,13.32,0.037,322.5